Regional Weather Roundup
Issued by NWS

Home | Current Version | Previous Version | Graphics & Text | Print | Product List | Glossary On
Versions: 1 2 3 4 5 6 7 8 9 10 11 12 13 14 15 16 17 18 19 20 21 22 23 24 25 26 27 28 29 30 31 32 33 34 35 36 37 38 39 40 41 42 43 44 45 46 47 48 49 50
000
ASUS43 KFSD 051602
RWRSD

WEATHER ROUNDUP FOR SOUTH DAKOTA
NATIONAL WEATHER SERVICE SIOUX FALLS SD
1100 AM CDT SAT SEP 05 2015

NOTE: "FAIR" INDICATES FEW OR NO CLOUDS BELOW 12,000 FEET WITH NO
SIGNIFICANT WEATHER AND/OR OBSTRUCTIONS TO VISIBILITY.


SDZ001>005-009-010-012>017-051700-
NORTHWEST AND NORTH CENTRAL SOUTH DAKOTA

CITY           SKY/WX    TMP DP  RH WIND       PRES   REMARKS
BUFFALO          N/A     71  66  84 E10       29.77R
FAITH            N/A     72  67  84 NE12      29.81F
MOBRIDGE       CLOUDY    74  72  93 SE12      29.80R
$$

SDZ012>016-024>037-041>051-057-063-072>074-051700-
SOUTHWEST AND SOUTH CENTRAL SOUTH DAKOTA

CITY           SKY/WX    TMP DP  RH WIND       PRES   REMARKS
RAPID CTY ARPT CLOUDY    74  62  66 E9        29.84S
PIERRE         CLOUDY    71  66  84 N12       29.72F
CUSTER         CLOUDY    72  50  45 CALM      29.98R
PHILIP         LGT RAIN  69  65  86 E6        29.79S
PINE RIDGE     CLOUDY    71  61  70 S3        29.85S
WINNER         FAIR      77  64  64 S9        29.80R
$$

SDZ004>011-016>023-039-040-051700-
NORTHEAST SOUTH DAKOTA

CITY           SKY/WX    TMP DP  RH WIND       PRES   REMARKS
ABERDEEN       CLOUDY    75  70  84 E6        29.81S
WATERTOWN      CLOUDY    77  69  76 S9        29.85R
BROOKINGS      CLOUDY    79  70  73 S10G18    29.87S
$$

SDZ017-020-022-023-036>040-048>070-051700-
SOUTHEAST SOUTH DAKOTA

CITY           SKY/WX    TMP DP  RH WIND       PRES   REMARKS
SIOUX FALLS    PTSUNNY   80  71  74 S12       29.86S
HURON          CLOUDY    77  69  76 SE8       29.79S
CHAMBERLAIN    CLOUDY    75  70  86 SE3       29.78R
MITCHELL       CLOUDY    79  69  71 S9        29.80S
YANKTON        PTSUNNY   82  68  61 S14G20    29.82R
$$

ABBREVIATIONS USED IN REMARKS
   TC - TEMPERATURE IN CELSIUS
  WCI - WIND CHILL INDEX
   HX - HEAT INDEX
  VSB - VISIBILITY



USA.gov is the U.S. government's official web portal to all federal, state and local government web resources and services.